Tracking 30918 objects as of 2-Jul-2025
HD Live streaming from Space Station
objects crossing your sky now

COSMOS 886 DEB

Track COSMOS 886 DEB now!
10-day predictions


NORAD ID: 9963
Int'l Code: 1976-126BD
Perigee: 534.7 km
Apogee: 1,726.5 km
Inclination: 65.8 °
Period: 107.8 minutes
Semi major axis: 7501 km
RCS: 0.135 m2 (medium)
Launch date: December 27, 1976
Source: Commonwealth of Independent States (former USSR) (CIS)
Launch site: TYURATAM MISSILE AND SPACE COMPLEX (TTMTR)

Note: This is SATELLITE DEBRIS
Your satellite tracking list
OPS 4682 DEB
Track 1 satellite(s)




NASA's NSSDC Master Catalog

Two Line Element Set (TLE):
1 09963U 76126BD  25182.57583756  .00002073  00000-0  63734-3 0  9991
2 09963  65.7935 267.2042 0794371 233.8567 118.6438 13.36208370307095
Source of the keplerian elements: AFSPC